Peotone Weather
Station Historical Data
 
Daily Summary for April 30, 2017 Units:  English    Metric   Both
« Previous Day
Next Day »
Daily Weekly Monthly Yearly Custom
  Current: High: Low: Average:
Temperature: 55.1 °F 55.1 °F 46.2 °F 48.6 °F
Dew Point: 54.3 °F 54.3 °F 45.1 °F 47.5 °F
Humidity: 97% 98% 95% 96%
Wind Speed: 3.4mph 13.8mph 0.0mph 5.6mph
Wind Gust: 4.6mph 20.7mph - -
WindENE - - East
Pressure: 29.54 in 29.93 in 29.53 in -
Precipitation: 0.48 in      
Historical Graphs
 
 
Tabular Data for April 30, 2017
Time Temperature Dew Point Pressure Wind Wind Speed Wind Gust Humidity Rainfall Rate (Hourly) solar Conditions
00:00 47.4 °F 46.3 °F 29.91 in NE 4.6 mph 16.1 mph 96% 0.02 in 0.00 W/m2
00:04 47.4 °F 46.3 °F 29.91 in NNE 6.9 mph 14.9 mph 96% 0.01 in 0.00 W/m2
00:05 47.4 °F 46.3 °F 29.91 in ENE 11.5 mph 14.9 mph 96% 0.01 in 0.00 W/m2
00:09 47.3 °F 46.2 °F 29.91 in NNE 3.4 mph 11.5 mph 96% 0.01 in 0.00 W/m2
00:10 47.3 °F 46.2 °F 29.91 in ENE 5.8 mph 13.8 mph 96% 0.01 in 0.00 W/m2
00:14 47.3 °F 46.2 °F 29.91 in NE 10.3 mph 14.9 mph 96% 0.00 in 0.00 W/m2
00:15 47.4 °F 46.3 °F 29.91 in NE 4.6 mph 14.9 mph 96% 0.00 in 0.00 W/m2
00:20 47.3 °F 46.2 °F 29.90 in NNE 5.8 mph 12.6 mph 96% 0.00 in 0.00 W/m2
00:25 47.3 °F 46.2 °F 29.90 in NE 5.8 mph 12.6 mph 96% 0.00 in 0.00 W/m2
00:30 47.4 °F 46.3 °F 29.90 in ENE 13.8 mph 13.8 mph 96% 0.00 in 0.00 W/m2
00:35 47.4 °F 46.3 °F 29.91 in NE 2.3 mph 12.6 mph 96% 0.00 in 0.00 W/m2
00:40 47.4 °F 46.3 °F 29.91 in NE 6.9 mph 10.3 mph 96% 0.00 in 0.00 W/m2
00:45 47.4 °F 46.3 °F 29.91 in NNE 4.6 mph 14.9 mph 96% 0.00 in 0.00 W/m2
00:50 47.4 °F 46.3 °F 29.92 in NE 5.8 mph 10.3 mph 96% 0.00 in 0.00 W/m2
00:55 47.4 °F 46.3 °F 29.92 in North 5.8 mph 11.5 mph 96% 0.00 in 0.00 W/m2
01:00 47.4 °F 46.3 °F 29.92 in NNE 6.9 mph 12.6 mph 96% 0.00 in 0.00 W/m2
01:05 47.4 °F 46.3 °F 29.93 in ENE 12.6 mph 12.6 mph 96% 0.00 in 0.00 W/m2
01:10 47.4 °F 46.3 °F 29.93 in NE 3.4 mph 9.2 mph 96% 0.01 in 0.00 W/m2
01:15 47.4 °F 46.3 °F 29.93 in NE 4.6 mph 11.5 mph 96% 0.01 in 0.00 W/m2
01:20 47.5 °F 46.4 °F 29.93 in ENE 2.3 mph 6.9 mph 96% 0.02 in 0.00 W/m2
01:25 47.4 °F 46.3 °F 29.93 in NNE 3.4 mph 9.2 mph 96% 0.02 in 0.00 W/m2
01:30 47.5 °F 46.4 °F 29.93 in NE 2.3 mph 10.3 mph 96% 0.02 in 0.00 W/m2
01:35 47.4 °F 46.3 °F 29.93 in ENE 4.6 mph 9.2 mph 96% 0.02 in 0.00 W/m2
01:40 47.4 °F 46.3 °F 29.93 in ENE 3.4 mph 11.5 mph 96% 0.02 in 0.00 W/m2
01:45 47.3 °F 46.2 °F 29.93 in Calm   10.3 mph 96% 0.02 in 0.00 W/m2
01:50 47.3 °F 46.2 °F 29.93 in ENE 3.4 mph 8.1 mph 96% 0.02 in 0.00 W/m2
01:55 47.3 °F 46.2 °F 29.93 in NE 8.1 mph 9.2 mph 96% 0.02 in 0.00 W/m2
02:00 47.2 °F 46.1 °F 29.92 in NNE 6.9 mph 10.3 mph 96% 0.02 in 0.00 W/m2
02:05 47.1 °F 46.0 °F 29.91 in NNE 1.1 mph 9.2 mph 96% 0.02 in 0.00 W/m2
02:10 47.0 °F 45.9 °F 29.91 in NE 5.8 mph 11.5 mph 96% 0.02 in 0.00 W/m2
02:15 47.0 °F 45.9 °F 29.90 in NE 4.6 mph 9.2 mph 96% 0.01 in 0.00 W/m2
02:20 46.9 °F 45.8 °F 29.90 in NE 9.2 mph 12.6 mph 96% 0.00 in 0.00 W/m2
02:25 46.9 °F 45.8 °F 29.90 in ENE 8.1 mph 14.9 mph 96% 0.00 in 0.00 W/m2
02:30 46.8 °F 45.7 °F 29.90 in ENE 2.3 mph 8.1 mph 96% 0.00 in 0.00 W/m2
02:35 46.8 °F 45.7 °F 29.90 in NE 4.6 mph 11.5 mph 96% 0.00 in 0.00 W/m2
02:40 46.8 °F 45.7 °F 29.90 in NE 8.1 mph 11.5 mph 96% 0.00 in 0.00 W/m2
02:45 46.8 °F 45.7 °F 29.90 in ENE 5.8 mph 12.6 mph 96% 0.00 in 0.00 W/m2
02:46 46.8 °F 45.7 °F 29.90 in NE 9.2 mph 12.6 mph 96% 0.00 in 0.00 W/m2
02:50 46.7 °F 45.6 °F 29.91 in NE 4.6 mph 9.2 mph 96% 0.00 in 0.00 W/m2
02:51 46.7 °F 45.6 °F 29.91 in NE 4.6 mph 9.2 mph 96% 0.00 in 0.00 W/m2
02:55 46.7 °F 45.6 °F 29.90 in ENE 4.6 mph 13.8 mph 96% 0.00 in 0.00 W/m2
02:56 46.7 °F 45.6 °F 29.90 in ENE 5.8 mph 13.8 mph 96% 0.00 in 0.00 W/m2
03:01 46.6 °F 45.5 °F 29.90 in NE 5.8 mph 14.9 mph 96% 0.00 in 0.00 W/m2
03:06 46.6 °F 45.5 °F 29.90 in ENE 9.2 mph 14.9 mph 96% 0.00 in 0.00 W/m2
03:11 46.5 °F 45.4 °F 29.90 in North 5.8 mph 10.3 mph 96% 0.00 in 0.00 W/m2
03:16 46.4 °F 45.3 °F 29.90 in ENE 10.3 mph 10.3 mph 96% 0.00 in 0.00 W/m2
03:21 46.4 °F 45.3 °F 29.90 in NE 5.8 mph 12.6 mph 96% 0.00 in 0.00 W/m2
03:26 46.4 °F 45.3 °F 29.90 in NE 5.8 mph 8.1 mph 96% 0.00 in 0.00 W/m2
03:31 46.4 °F 45.3 °F 29.90 in NE 4.6 mph 12.6 mph 96% 0.00 in 0.00 W/m2
03:36 46.4 °F 45.3 °F 29.90 in NE 6.9 mph 11.5 mph 96% 0.00 in 0.00 W/m2
03:42 46.4 °F 45.3 °F 29.90 in NE 4.6 mph 12.6 mph 96% 0.00 in 0.00 W/m2
03:47 46.4 °F 45.3 °F 29.90 in ENE 1.1 mph 6.9 mph 96% 0.00 in 0.00 W/m2
03:52 46.4 °F 45.3 °F 29.90 in NE 4.6 mph 8.1 mph 96% 0.00 in 0.00 W/m2
03:57 46.4 °F 45.3 °F 29.91 in East 3.4 mph 9.2 mph 96% 0.00 in 0.00 W/m2
04:02 46.5 °F 45.4 °F 29.90 in NE 4.6 mph 5.8 mph 96% 0.00 in 0.00 W/m2
04:07 46.5 °F 45.4 °F 29.90 in NE 3.4 mph 10.3 mph 96% 0.00 in 0.00 W/m2
04:12 46.5 °F 45.4 °F 29.90 in NE 10.3 mph 10.3 mph 96% 0.00 in 0.00 W/m2
04:17 46.5 °F 45.4 °F 29.89 in ENE 2.3 mph 11.5 mph 96% 0.00 in 0.00 W/m2
04:22 46.5 °F 45.4 °F 29.89 in NE 5.8 mph 8.1 mph 96% 0.00 in 0.00 W/m2
04:27 46.4 °F 45.3 °F 29.89 in NNE 3.4 mph 10.3 mph 96% 0.00 in 0.00 W/m2
04:32 46.4 °F 45.3 °F 29.89 in NE 10.3 mph 11.5 mph 96% 0.00 in 0.00 W/m2
04:37 46.4 °F 45.3 °F 29.89 in ENE 3.4 mph 12.6 mph 96% 0.01 in 0.00 W/m2
04:42 46.4 °F 45.3 °F 29.89 in NE 5.8 mph 11.5 mph 96% 0.01 in 0.00 W/m2
04:47 46.4 °F 45.3 °F 29.89 in ENE 3.4 mph 12.6 mph 96% 0.01 in 0.00 W/m2
04:52 46.4 °F 45.3 °F 29.89 in NNE 10.3 mph 13.8 mph 96% 0.02 in 0.00 W/m2
04:58 46.4 °F 45.3 °F 29.89 in NNE 9.2 mph 14.9 mph 96% 0.02 in 0.00 W/m2
05:02 46.3 °F 45.2 °F 29.89 in NE 3.4 mph 13.8 mph 96% 0.02 in 0.00 W/m2
05:08 46.3 °F 45.2 °F 29.89 in NE 3.4 mph 11.5 mph 96% 0.02 in 0.00 W/m2
05:13 46.3 °F 45.2 °F 29.90 in NE 8.1 mph 10.3 mph 96% 0.02 in 0.00 W/m2
05:18 46.3 °F 45.2 °F 29.90 in East 3.4 mph 10.3 mph 96% 0.02 in 0.00 W/m2
05:23 46.3 °F 45.2 °F 29.90 in East 3.4 mph 11.5 mph 96% 0.02 in 0.00 W/m2
05:28 46.2 °F 45.1 °F 29.90 in NE 2.3 mph 12.6 mph 96% 0.02 in 0.00 W/m2
05:33 46.2 °F 45.1 °F 29.90 in NE 6.9 mph 8.1 mph 96% 0.02 in 0.00 W/m2
05:38 46.2 °F 45.1 °F 29.90 in NE 6.9 mph 8.1 mph 96% 0.01 in 0.00 W/m2
05:43 46.3 °F 45.2 °F 29.90 in NNE 4.6 mph 9.2 mph 96% 0.02 in 0.00 W/m2
05:48 46.3 °F 45.2 °F 29.90 in NNE 3.4 mph 4.6 mph 96% 0.03 in 0.00 W/m2
05:53 46.3 °F 45.2 °F 29.90 in NE 4.6 mph 8.1 mph 96% 0.03 in 0.00 W/m2
05:58 46.3 °F 45.2 °F 29.90 in NE 2.3 mph 6.9 mph 96% 0.04 in 0.00 W/m2
06:03 46.3 °F 45.2 °F 29.90 in NE 1.1 mph 9.2 mph 96% 0.04 in 0.00 W/m2
06:08 46.3 °F 45.2 °F 29.91 in NE 3.4 mph 8.1 mph 96% 0.04 in 0.00 W/m2
06:13 46.3 °F 45.2 °F 29.91 in NNE 5.8 mph 8.1 mph 96% 0.05 in 0.00 W/m2
06:18 46.4 °F 45.3 °F 29.90 in NNE 2.3 mph 5.8 mph 96% 0.06 in 0.00 W/m2
06:23 46.4 °F 45.6 °F 29.90 in NNE 2.3 mph 8.1 mph 97% 0.06 in 0.00 W/m2
06:28 46.4 °F 45.6 °F 29.90 in NE 6.9 mph 9.2 mph 97% 0.07 in 5.00 W/m2
06:34 46.4 °F 45.6 °F 29.90 in NNE 2.3 mph 8.1 mph 97% 0.08 in 5.00 W/m2
06:39 46.4 °F 45.6 °F 29.89 in NE 3.4 mph 6.9 mph 97% 0.08 in 7.00 W/m2
06:44 46.4 °F 45.3 °F 29.89 in NE 4.6 mph 5.8 mph 96% 0.07 in 11.00 W/m2
06:49 46.4 °F 45.6 °F 29.89 in NNE 5.8 mph 9.2 mph 97% 0.07 in 12.00 W/m2
06:54 46.4 °F 45.6 °F 29.89 in NE 3.4 mph 9.2 mph 97% 0.06 in 11.00 W/m2
06:59 46.3 °F 45.2 °F 29.88 in Calm   9.2 mph 96% 0.06 in 11.00 W/m2
07:04 46.3 °F 45.5 °F 29.87 in NE 1.1 mph 6.9 mph 97% 0.05 in 14.00 W/m2
07:09 46.3 °F 45.5 °F 29.87 in NNE 3.4 mph 9.2 mph 97% 0.05 in 12.00 W/m2
07:14 46.3 °F 45.2 °F 29.86 in NE 3.4 mph 9.2 mph 96% 0.05 in 11.00 W/m2
07:19 46.2 °F 45.1 °F 29.86 in NNE 5.8 mph 14.9 mph 96% 0.04 in 16.00 W/m2
07:24 46.3 °F 45.2 °F 29.85 in NE 5.8 mph 10.3 mph 96% 0.04 in 16.00 W/m2
07:29 46.3 °F 45.2 °F 29.85 in NNE 8.1 mph 10.3 mph 96% 0.06 in 16.00 W/m2
07:34 46.3 °F 45.2 °F 29.85 in ENE 4.6 mph 14.9 mph 96% 0.05 in 14.00 W/m2
07:39 46.3 °F 45.2 °F 29.84 in NE 8.1 mph 13.8 mph 96% 0.05 in 18.00 W/m2
07:44 46.3 °F 45.2 °F 29.82 in ENE 4.6 mph 13.8 mph 96% 0.05 in 30.00 W/m2
07:49 46.3 °F 45.2 °F 29.82 in NE 3.4 mph 16.1 mph 96% 0.06 in 54.00 W/m2
07:54 46.4 °F 45.6 °F 29.82 in ENE 5.8 mph 17.2 mph 97% 0.06 in 60.00 W/m2
07:59 46.5 °F 45.7 °F 29.83 in NE 5.8 mph 14.9 mph 97% 0.05 in 51.00 W/m2
08:04 46.5 °F 45.7 °F 29.82 in ENE 10.3 mph 13.8 mph 97% 0.05 in 60.00 W/m2
08:10 46.6 °F 45.8 °F 29.81 in NE 8.1 mph 11.5 mph 97% 0.05 in 62.00 W/m2
08:15 46.8 °F 46.0 °F 29.81 in East 9.2 mph 13.8 mph 97% 0.04 in 56.00 W/m2
08:20 46.9 °F 46.1 °F 29.79 in ENE 8.1 mph 20.7 mph 97% 0.04 in 60.00 W/m2
08:25 46.9 °F 46.1 °F 29.80 in NE 9.2 mph 14.9 mph 97% 0.04 in 49.00 W/m2
08:30 47.0 °F 46.2 °F 29.79 in ENE 12.6 mph 13.8 mph 97% 0.03 in 63.00 W/m2
08:35 47.1 °F 46.3 °F 29.79 in ENE 5.8 mph 14.9 mph 97% 0.02 in 58.00 W/m2
08:40 47.2 °F 46.4 °F 29.78 in NE 4.6 mph 14.9 mph 97% 0.02 in 65.00 W/m2
08:45 47.3 °F 46.5 °F 29.78 in ENE 10.3 mph 14.9 mph 97% 0.01 in 65.00 W/m2
08:50 47.4 °F 46.6 °F 29.78 in NE 4.6 mph 14.9 mph 97% 0.01 in 76.00 W/m2
08:55 47.5 °F 46.7 °F 29.77 in ESE 9.2 mph 12.6 mph 97% 0.00 in 88.00 W/m2
09:00 47.6 °F 46.8 °F 29.75 in NE 3.4 mph 14.9 mph 97% 0.00 in 102.00 W/m2
09:05 47.8 °F 47.0 °F 29.76 in ENE 5.8 mph 17.2 mph 97% 0.00 in 134.00 W/m2
09:10 48.0 °F 47.2 °F 29.76 in Calm   13.8 mph 97% 0.00 in 121.00 W/m2
09:11 48.1 °F 47.3 °F 29.76 in ENE 5.8 mph 13.8 mph 97% 0.00 in 114.00 W/m2
09:16 48.2 °F 47.4 °F 29.77 in ENE 5.8 mph 10.3 mph 97% 0.00 in 76.00 W/m2
09:21 48.3 °F 47.5 °F 29.77 in NNE 1.1 mph 9.2 mph 97% 0.00 in 79.00 W/m2
09:26 48.5 °F 47.7 °F 29.76 in ENE 2.3 mph 12.6 mph 97% 0.00 in 86.00 W/m2
09:31 48.6 °F 47.8 °F 29.76 in East 3.4 mph 6.9 mph 97% 0.00 in 111.00 W/m2
09:36 48.8 °F 48.0 °F 29.76 in Calm   10.3 mph 97% 0.00 in 134.00 W/m2
09:41 49.0 °F 48.2 °F 29.76 in East 8.1 mph 10.3 mph 97% 0.00 in 137.00 W/m2
09:46 49.3 °F 48.5 °F 29.76 in East 1.1 mph 12.6 mph 97% 0.00 in 132.00 W/m2
09:51 49.5 °F 48.7 °F 29.76 in NE 2.3 mph 8.1 mph 97% 0.00 in 155.00 W/m2
09:56 49.9 °F 49.1 °F 29.76 in NE 6.9 mph 10.3 mph 97% 0.00 in 114.00 W/m2
10:01 50.1 °F 49.3 °F 29.77 in East 5.8 mph 10.3 mph 97% 0.00 in 137.00 W/m2
10:06 50.1 °F 49.3 °F 29.78 in ESE 3.4 mph 12.6 mph 97% 0.00 in 120.00 W/m2
10:11 50.4 °F 49.6 °F 29.78 in ENE 5.8 mph 10.3 mph 97% 0.00 in 111.00 W/m2
10:16 50.6 °F 49.8 °F 29.78 in East 2.3 mph 5.8 mph 97% 0.00 in 146.00 W/m2
10:21 51.0 °F 50.2 °F 29.78 in East 5.8 mph 10.3 mph 97% 0.00 in 176.00 W/m2
10:26 51.1 °F 50.3 °F 29.78 in East 2.3 mph 2.3 mph 97% 0.00 in 178.00 W/m2
10:30 51.2 °F 50.4 °F 29.78 in Calm   6.9 mph 97% 0.00 in 151.00 W/m2
10:35 51.4 °F 50.6 °F 29.78 in ENE 2.3 mph 9.2 mph 97% 0.00 in 144.00 W/m2
10:40 51.4 °F 50.6 °F 29.78 in Calm   8.1 mph 97% 0.00 in 146.00 W/m2
10:45 51.7 °F 50.9 °F 29.79 in East 1.1 mph 9.2 mph 97% 0.00 in 165.00 W/m2
10:50 51.9 °F 51.1 °F 29.80 in Calm   6.9 mph 97% 0.00 in 128.00 W/m2
10:55 51.8 °F 50.7 °F 29.80 in ENE 2.3 mph 9.2 mph 96% 0.00 in 91.00 W/m2
11:00 51.8 °F 51.0 °F 29.81 in ENE 5.8 mph 5.8 mph 97% 0.00 in 67.00 W/m2
11:05 51.7 °F 50.6 °F 29.82 in NE 2.3 mph 4.6 mph 96% 0.00 in 47.00 W/m2
11:10 51.9 °F 51.1 °F 29.82 in NNW 2.3 mph 5.8 mph 97% 0.00 in 47.00 W/m2
11:15 52.1 °F 51.0 °F 29.82 in NNW 2.3 mph 6.9 mph 96% 0.00 in 42.00 W/m2
11:20 52.1 °F 51.0 °F 29.81 in NNW 2.3 mph 3.4 mph 96% 0.00 in 86.00 W/m2
11:25 52.1 °F 51.0 °F 29.82 in Calm   4.6 mph 96% 0.00 in 81.00 W/m2
11:30 52.2 °F 51.1 °F 29.81 in NNW 4.6 mph 6.9 mph 96% 0.01 in 135.00 W/m2
11:35 52.1 °F 51.0 °F 29.81 in NNW 3.4 mph 5.8 mph 96% 0.01 in 107.00 W/m2
11:40 52.1 °F 51.0 °F 29.81 in Calm   5.8 mph 96% 0.01 in 135.00 W/m2
11:46 52.1 °F 51.0 °F 29.82 in NNW 4.6 mph 6.9 mph 96% 0.01 in 134.00 W/m2
11:51 52.3 °F 51.2 °F 29.80 in North 2.3 mph 5.8 mph 96% 0.01 in 176.00 W/m2
11:56 52.0 °F 50.9 °F 29.80 in North 3.4 mph 8.1 mph 96% 0.01 in 163.00 W/m2
12:01 52.0 °F 50.9 °F 29.80 in North 5.8 mph 6.9 mph 96% 0.01 in 167.00 W/m2
12:06 52.1 °F 51.0 °F 29.80 in NNW 1.1 mph 6.9 mph 96% 0.01 in 195.00 W/m2
12:11 51.9 °F 50.8 °F 29.79 in Calm   8.1 mph 96% 0.01 in 255.00 W/m2
12:16 52.3 °F 51.2 °F 29.80 in NNW 8.1 mph 8.1 mph 96% 0.01 in 218.00 W/m2
12:21 52.1 °F 51.0 °F 29.80 in NNW 5.8 mph 8.1 mph 96% 0.01 in 207.00 W/m2
12:26 52.5 °F 51.4 °F 29.80 in North 3.4 mph 9.2 mph 96% 0.01 in 262.00 W/m2
12:31 52.5 °F 51.4 °F 29.80 in NNW 3.4 mph 9.2 mph 96% 0.01 in 223.00 W/m2
12:36 52.1 °F 51.0 °F 29.80 in NNW 6.9 mph 11.5 mph 96% 0.00 in 200.00 W/m2
12:41 52.0 °F 50.9 °F 29.79 in NNW 5.8 mph 11.5 mph 96% 0.00 in 195.00 W/m2
12:46 51.9 °F 50.5 °F 29.79 in NNW 5.8 mph 5.8 mph 95% 0.00 in 197.00 W/m2
12:51 52.1 °F 51.0 °F 29.79 in NNW 2.3 mph 3.4 mph 96% 0.00 in 195.00 W/m2
12:56 52.0 °F 50.6 °F 29.79 in NNW 4.6 mph 6.9 mph 95% 0.00 in 185.00 W/m2
13:01 51.9 °F 50.5 °F 29.79 in NNW 4.6 mph 4.6 mph 95% 0.00 in 188.00 W/m2
13:06 51.7 °F 50.3 °F 29.80 in NNW 2.3 mph 2.3 mph 95% 0.00 in 160.00 W/m2
13:11 52.2 °F 51.1 °F 29.79 in NW 2.3 mph 5.8 mph 96% 0.00 in 174.00 W/m2
13:16 52.1 °F 50.7 °F 29.80 in North 3.4 mph 3.4 mph 95% 0.00 in 172.00 W/m2
13:21 51.9 °F 50.5 °F 29.80 in NE 3.4 mph 6.9 mph 95% 0.00 in 181.00 W/m2
13:27 51.9 °F 50.5 °F 29.80 in NNE 3.4 mph 4.6 mph 95% 0.00 in 216.00 W/m2
13:32 52.1 °F 50.7 °F 29.80 in NNE 1.1 mph 3.4 mph 95% 0.00 in 149.00 W/m2
13:37 51.9 °F 50.5 °F 29.79 in NNE 1.1 mph 5.8 mph 95% 0.00 in 165.00 W/m2
13:42 51.8 °F 50.4 °F 29.81 in NNE 3.4 mph 3.4 mph 95% 0.00 in 135.00 W/m2
13:47 51.7 °F 50.3 °F 29.81 in NE 3.4 mph 4.6 mph 95% 0.00 in 135.00 W/m2
13:52 51.5 °F 50.1 °F 29.81 in ENE 5.8 mph 10.3 mph 95% 0.00 in 153.00 W/m2
13:57 51.4 °F 50.0 °F 29.81 in NE 4.6 mph 6.9 mph 95% 0.00 in 155.00 W/m2
14:02 51.6 °F 50.5 °F 29.81 in North 8.1 mph 12.6 mph 96% 0.00 in 181.00 W/m2
14:07 51.7 °F 50.6 °F 29.81 in NNE 2.3 mph 10.3 mph 96% 0.00 in 192.00 W/m2
14:12 51.6 °F 50.2 °F 29.81 in ENE 4.6 mph 10.3 mph 95% 0.00 in 163.00 W/m2
14:17 51.5 °F 50.1 °F 29.80 in NNE 4.6 mph 8.1 mph 95% 0.00 in 160.00 W/m2
14:22 51.6 °F 50.5 °F 29.80 in NNE 5.8 mph 10.3 mph 96% 0.00 in 195.00 W/m2
14:27 51.8 °F 50.7 °F 29.80 in NNE 4.6 mph 12.6 mph 96% 0.00 in 193.00 W/m2
14:32 51.9 °F 50.5 °F 29.80 in NE 2.3 mph 6.9 mph 95% 0.00 in 178.00 W/m2
14:37 51.8 °F 50.4 °F 29.80 in NE 3.4 mph 11.5 mph 95% 0.00 in 172.00 W/m2
14:42 51.5 °F 50.1 °F 29.80 in East 3.4 mph 10.3 mph 95% 0.00 in 163.00 W/m2
14:47 51.3 °F 49.9 °F 29.79 in NNE 11.5 mph 14.9 mph 95% 0.00 in 174.00 W/m2
14:52 51.0 °F 49.6 °F 29.79 in North 4.6 mph 9.2 mph 95% 0.00 in 186.00 W/m2
14:57 50.7 °F 49.3 °F 29.78 in NE 8.1 mph 11.5 mph 95% 0.00 in 146.00 W/m2
15:03 50.5 °F 49.1 °F 29.78 in NE 11.5 mph 16.1 mph 95% 0.00 in 153.00 W/m2
15:08 49.9 °F 48.5 °F 29.77 in ESE 11.5 mph 14.9 mph 95% 0.00 in 144.00 W/m2
15:13 49.7 °F 48.3 °F 29.77 in East 3.4 mph 6.9 mph 95% 0.00 in 109.00 W/m2
15:18 49.5 °F 48.1 °F 29.77 in NNE 4.6 mph 13.8 mph 95% 0.00 in 100.00 W/m2
15:23 49.2 °F 47.8 °F 29.77 in NE 4.6 mph 11.5 mph 95% 0.00 in 98.00 W/m2
15:28 49.0 °F 47.6 °F 29.77 in NE 4.6 mph 11.5 mph 95% 0.00 in 102.00 W/m2
15:33 48.7 °F 47.3 °F 29.77 in NE 5.8 mph 13.8 mph 95% 0.00 in 77.00 W/m2
15:38 48.6 °F 47.5 °F 29.76 in NNE 9.2 mph 11.5 mph 96% 0.01 in 69.00 W/m2
15:43 48.4 °F 47.3 °F 29.76 in NNE 4.6 mph 11.5 mph 96% 0.02 in 79.00 W/m2
15:48 48.3 °F 47.2 °F 29.76 in NNE 5.8 mph 11.5 mph 96% 0.02 in 76.00 W/m2
15:53 48.3 °F 47.2 °F 29.75 in ENE 9.2 mph 11.5 mph 96% 0.02 in 104.00 W/m2
15:58 48.1 °F 47.0 °F 29.75 in NE 13.8 mph 13.8 mph 96% 0.02 in 76.00 W/m2
16:03 47.9 °F 46.8 °F 29.74 in NNE 12.6 mph 12.6 mph 96% 0.02 in 81.00 W/m2
16:08 47.8 °F 46.7 °F 29.74 in North 5.8 mph 14.9 mph 96% 0.02 in 88.00 W/m2
16:13 47.9 °F 46.8 °F 29.74 in NNE 9.2 mph 10.3 mph 96% 0.02 in 105.00 W/m2
16:18 47.9 °F 46.8 °F 29.75 in NE 9.2 mph 12.6 mph 96% 0.02 in 84.00 W/m2
16:23 47.6 °F 46.5 °F 29.74 in North 8.1 mph 17.2 mph 96% 0.02 in 120.00 W/m2
16:28 47.6 °F 46.5 °F 29.75 in NNE 6.9 mph 16.1 mph 96% 0.02 in 72.00 W/m2
16:33 47.5 °F 46.4 °F 29.75 in NNE 9.2 mph 14.9 mph 96% 0.02 in 90.00 W/m2
16:38 47.5 °F 46.4 °F 29.74 in ENE 8.1 mph 16.1 mph 96% 0.01 in 116.00 W/m2
16:43 47.6 °F 46.5 °F 29.74 in ENE 5.8 mph 16.1 mph 96% 0.01 in 83.00 W/m2
16:48 47.5 °F 46.4 °F 29.74 in ENE 8.1 mph 12.6 mph 96% 0.00 in 88.00 W/m2
16:54 47.6 °F 46.5 °F 29.74 in NE 12.6 mph 17.2 mph 96% 0.00 in 60.00 W/m2
16:59 47.4 °F 46.3 °F 29.74 in NE 4.6 mph 18.4 mph 96% 0.00 in 30.00 W/m2
17:04 47.4 °F 46.3 °F 29.74 in NE 3.4 mph 14.9 mph 96% 0.00 in 25.00 W/m2
17:09 47.3 °F 46.2 °F 29.73 in NE 12.6 mph 12.6 mph 96% 0.00 in 46.00 W/m2
17:14 47.3 °F 46.2 °F 29.73 in WNW 9.2 mph 16.1 mph 96% 0.00 in 51.00 W/m2
17:19 47.2 °F 46.1 °F 29.73 in NE 8.1 mph 16.1 mph 96% 0.00 in 51.00 W/m2
17:24 47.2 °F 46.1 °F 29.73 in East 5.8 mph 16.1 mph 96% 0.00 in 35.00 W/m2
17:29 47.2 °F 46.1 °F 29.73 in NE 6.9 mph 13.8 mph 96% 0.00 in 26.00 W/m2
17:34 47.1 °F 46.0 °F 29.73 in NNE 8.1 mph 10.3 mph 96% 0.00 in 21.00 W/m2
17:39 47.1 °F 46.0 °F 29.73 in NE 9.2 mph 11.5 mph 96% 0.00 in 23.00 W/m2
17:44 47.1 °F 46.0 °F 29.72 in NNE 9.2 mph 19.5 mph 96% 0.00 in 28.00 W/m2
17:49 47.0 °F 45.9 °F 29.72 in NNE 9.2 mph 12.6 mph 96% 0.00 in 19.00 W/m2
17:54 47.0 °F 45.9 °F 29.71 in ENE 10.3 mph 11.5 mph 96% 0.01 in 14.00 W/m2
17:59 47.0 °F 45.9 °F 29.71 in ENE 13.8 mph 13.8 mph 96% 0.01 in 25.00 W/m2
18:04 47.0 °F 45.9 °F 29.70 in NE 13.8 mph 17.2 mph 96% 0.01 in 30.00 W/m2
18:09 47.0 °F 45.9 °F 29.70 in ENE 12.6 mph 12.6 mph 96% 0.01 in 23.00 W/m2
18:14 47.0 °F 45.9 °F 29.69 in NNE 9.2 mph 10.3 mph 96% 0.01 in 25.00 W/m2
18:19 47.0 °F 45.9 °F 29.69 in NNE 9.2 mph 16.1 mph 96% 0.01 in 16.00 W/m2
18:25 47.0 °F 45.9 °F 29.69 in NE 6.9 mph 18.4 mph 96% 0.01 in 14.00 W/m2
18:30 47.1 °F 46.0 °F 29.69 in North 9.2 mph 12.6 mph 96% 0.01 in 9.00 W/m2
18:35 47.1 °F 46.0 °F 29.69 in ENE 4.6 mph 11.5 mph 96% 0.01 in 7.00 W/m2
18:40 47.1 °F 46.0 °F 29.70 in NNE 6.9 mph 16.1 mph 96% 0.03 in 0.00 W/m2
18:45 47.0 °F 45.9 °F 29.69 in NNE 5.8 mph 13.8 mph 96% 0.07 in 0.00 W/m2
18:50 47.0 °F 45.9 °F 29.69 in NE 5.8 mph 11.5 mph 96% 0.07 in 0.00 W/m2
18:55 47.0 °F 45.9 °F 29.69 in NE 5.8 mph 16.1 mph 96% 0.08 in 5.00 W/m2
19:00 47.0 °F 45.9 °F 29.68 in NE 8.1 mph 14.9 mph 96% 0.08 in 9.00 W/m2
19:05 47.1 °F 46.0 °F 29.68 in NE 12.6 mph 17.2 mph 96% 0.08 in 11.00 W/m2
19:10 47.1 °F 46.0 °F 29.68 in ENE 5.8 mph 11.5 mph 96% 0.08 in 7.00 W/m2
19:15 47.2 °F 46.1 °F 29.68 in ENE 9.2 mph 11.5 mph 96% 0.08 in 7.00 W/m2
19:20 47.3 °F 46.2 °F 29.68 in ENE 3.4 mph 13.8 mph 96% 0.08 in 5.00 W/m2
19:21 47.3 °F 46.2 °F 29.68 in NE 5.8 mph 13.8 mph 96% 0.08 in 0.00 W/m2
19:26 47.4 °F 46.3 °F 29.67 in ENE 9.2 mph 10.3 mph 96% 0.08 in 0.00 W/m2
19:31 47.4 °F 46.3 °F 29.67 in NE 6.9 mph 12.6 mph 96% 0.08 in 0.00 W/m2
19:36 47.5 °F 46.4 °F 29.67 in NE 3.4 mph 14.9 mph 96% 0.08 in 0.00 W/m2
19:41 47.5 °F 46.4 °F 29.66 in ENE 10.3 mph 11.5 mph 96% 0.08 in 0.00 W/m2
19:46 47.6 °F 46.5 °F 29.66 in NNE 5.8 mph 5.8 mph 96% 0.02 in 0.00 W/m2
19:51 47.7 °F 46.6 °F 29.65 in ENE 8.1 mph 8.1 mph 96% 0.01 in 0.00 W/m2
19:56 47.7 °F 46.6 °F 29.65 in NE 6.9 mph 6.9 mph 96% 0.00 in 0.00 W/m2
20:01 47.8 °F 46.7 °F 29.65 in ENE 4.6 mph 10.3 mph 96% 0.00 in 0.00 W/m2
20:06 47.9 °F 46.8 °F 29.64 in NE 3.4 mph 4.6 mph 96% 0.00 in 0.00 W/m2
20:11 48.0 °F 46.9 °F 29.64 in ENE 4.6 mph 5.8 mph 96% 0.00 in 0.00 W/m2
20:16 48.1 °F 47.3 °F 29.63 in NE 4.6 mph 9.2 mph 97% 0.00 in 0.00 W/m2
20:21 48.2 °F 47.4 °F 29.63 in ENE 5.8 mph 9.2 mph 97% 0.00 in 0.00 W/m2
20:22 48.2 °F 47.4 °F 29.63 in NNE 11.5 mph 11.5 mph 97% 0.00 in 0.00 W/m2
20:27 48.3 °F 47.5 °F 29.63 in NE 5.8 mph 9.2 mph 97% 0.00 in 0.00 W/m2
20:32 48.4 °F 47.6 °F 29.62 in NNE 5.8 mph 12.6 mph 97% 0.00 in 0.00 W/m2
20:37 48.5 °F 47.7 °F 29.62 in NE 8.1 mph 16.1 mph 97% 0.00 in 0.00 W/m2
20:42 48.6 °F 47.8 °F 29.62 in NNE 12.6 mph 12.6 mph 97% 0.00 in 0.00 W/m2
20:47 48.7 °F 47.9 °F 29.62 in ENE 9.2 mph 10.3 mph 97% 0.00 in 0.00 W/m2
20:52 48.8 °F 48.0 °F 29.62 in ENE 3.4 mph 11.5 mph 97% 0.00 in 0.00 W/m2
20:57 48.8 °F 48.0 °F 29.62 in NE 5.8 mph 14.9 mph 97% 0.00 in 0.00 W/m2
21:02 49.0 °F 48.2 °F 29.61 in NE 3.4 mph 11.5 mph 97% 0.00 in 0.00 W/m2
21:07 49.1 °F 48.3 °F 29.61 in NNE 8.1 mph 9.2 mph 97% 0.00 in 0.00 W/m2
21:12 49.4 °F 48.6 °F 29.62 in ENE 8.1 mph 9.2 mph 97% 0.00 in 0.00 W/m2
21:17 49.6 °F 48.8 °F 29.62 in NE 6.9 mph 10.3 mph 97% 0.00 in 0.00 W/m2
21:22 49.8 °F 49.0 °F 29.61 in NE 8.1 mph 12.6 mph 97% 0.02 in 0.00 W/m2
21:27 49.9 °F 49.1 °F 29.61 in NNE 8.1 mph 9.2 mph 97% 0.02 in 0.00 W/m2
21:32 50.0 °F 49.2 °F 29.60 in NE 4.6 mph 10.3 mph 97% 0.02 in 0.00 W/m2
21:37 50.1 °F 49.3 °F 29.60 in NE 4.6 mph 8.1 mph 97% 0.02 in 0.00 W/m2
21:42 50.1 °F 49.3 °F 29.59 in NE 9.2 mph 12.6 mph 97% 0.02 in 0.00 W/m2
21:47 50.0 °F 49.2 °F 29.59 in NNE 13.8 mph 13.8 mph 97% 0.02 in 0.00 W/m2
21:52 50.0 °F 49.2 °F 29.59 in ENE 5.8 mph 12.6 mph 97% 0.02 in 0.00 W/m2
21:58 50.0 °F 49.2 °F 29.58 in East 6.9 mph 12.6 mph 97% 0.02 in 0.00 W/m2
22:03 50.1 °F 49.3 °F 29.57 in NE 3.4 mph 8.1 mph 97% 0.02 in 0.00 W/m2
22:08 50.3 °F 49.5 °F 29.56 in NE 11.5 mph 12.6 mph 97% 0.02 in 0.00 W/m2
22:13 50.5 °F 49.7 °F 29.55 in NE 5.8 mph 11.5 mph 97% 0.02 in 0.00 W/m2
22:18 50.6 °F 49.8 °F 29.56 in ENE 3.4 mph 9.2 mph 97% 0.02 in 0.00 W/m2
22:23 50.8 °F 50.0 °F 29.54 in NE 6.9 mph 10.3 mph 97% 0.01 in 0.00 W/m2
22:28 51.0 °F 50.2 °F 29.53 in East 3.4 mph 9.2 mph 97% 0.00 in 0.00 W/m2
22:33 51.3 °F 50.5 °F 29.53 in ENE 10.3 mph 10.3 mph 97% 0.00 in 0.00 W/m2
22:38 51.7 °F 50.9 °F 29.53 in ENE 5.8 mph 10.3 mph 97% 0.00 in 0.00 W/m2
22:43 52.1 °F 51.3 °F 29.53 in ENE 1.1 mph 8.1 mph 97% 0.00 in 0.00 W/m2
22:48 52.7 °F 51.9 °F 29.53 in ENE 2.3 mph 10.3 mph 97% 0.08 in 0.00 W/m2
22:53 53.4 °F 52.6 °F 29.54 in ENE 3.4 mph 4.6 mph 97% 0.10 in 0.00 W/m2
22:58 54.0 °F 53.2 °F 29.53 in ENE 8.1 mph 9.2 mph 97% 0.12 in 0.00 W/m2
23:03 54.3 °F 53.5 °F 29.53 in East 3.4 mph 6.9 mph 97% 0.12 in 0.00 W/m2
23:08 54.6 °F 54.0 °F 29.53 in Calm   5.8 mph 98% 0.12 in 0.00 W/m2
23:13 54.8 °F 54.2 °F 29.53 in ENE 2.3 mph 4.6 mph 98% 0.13 in 0.00 W/m2
23:18 55.1 °F 54.3 °F 29.54 in ENE 3.4 mph 4.6 mph 97% 0.16 in 0.00 W/m2
peotoneweather.com
Compliments of Weather Underground - 1.5 mb